PROPCUBE 2 (FAUNA) (43052 NORAD) Tracking and Keplerian Element Data

This shows tracking and keplerian element data for the satellite.

Feedback or suggestion? Click here.




ElementValue
Catalog43052
NamePROPCUBE 2 (FAUNA)
Epoch Orbit7200
Epoch Day78.55844619
Epoch Year2019
RAAN137.3467
Inclination51.6387
Eccentricity0.0002028
Argument of Perigee191.7714
Mean Anonmoly168.3224
Mean Motion15.40929767
Decay Rate3.497E-05
L11 43052U 17071R 19078.55844619 .00003497 00000-0 93321-4 0 9992
L22 43052 51.6387 137.3467 0002028 191.7714 168.3224 15.40929767 72004

Live tracking and technical data element details for PROPCUBE 2 (FAUNA) (NORAD 43052). PROPCUBE 2 (FAUNA) can be tracked NOW for your location showing map with azimuth and elevation plus other details from your city location.

Track the satellite on the map from your city or location and see movement details for azimuth, elevation, latitude, longitude, range, height, and movement on the map or in text.







IsCatalogInMostPopularTable: catalog: 43052, numindb: 212
Update: records affected: 1



GetName: 43052 PROPCUBE 2 (FAUNA)

Hit Count: updated at: Thu, 21 Mar 2019 02:03:45 GMT